User: anonymous   Login
Location: Allie Creek
(37.5926°N, 89.8526°W)
Time: 01:58:22
(UTC+00:00)
Language:

NOSS 2-2 (D) - Orbit

View from above orbital plane
View from above orbital plane
View from above satellite
View from above satellite

Ground track
Ground track

The orbit data is extracted from the following two-line orbital elements,

1 21808U 91076D   24035.77748049 0.00006898  00000-0  72903-3 0    00
2 21808  63.3009 286.4850 0901073  59.3257 300.7650 13.47270023    06
Epoch (UTC): 04 February 2024 18:39:34
Eccentricity: 0.0901073
inclination: 63.3009°
perigee height: 410 km
apogee height: 1754 km
right ascension of ascending node: 286.4850°
argument of perigee: 59.3257°
revolutions per day: 13.47270023
mean anomaly at epoch: 300.7650°
orbit number at epoch: 0

The dashed part of the orbit path shows where the satellite is in the earth's shadow,  

DLR